Погода в Дукстасе

Поиск расширенной информации на нашем сайте:

Полезная информация:

Новости сайта



02.01.2020
Опубликован Долгосрочный прогноз погоды по городам России и ближнего зарубежья на январь 2020 года.
Карты: Прогноз на январь и февраль 2020 года, Сравнение прогнозируемой аномалии приземной температуры воздуха на январь 2020 года по разным моделям.




Погода в Дукстасе - сегодня

Время (UTC), дата Ветер
(°,м/с) 
Видим.   Явления Облачность Т
(°С)
Тd
(°С)
f(%) Тe
(°С)
Pmin
(гПа)
dP
(гПа)
Po
(мм)
O2
(г/м3)
Тmin Tmax R s Состояние
почвы
00 16.01.22 280 (З) 3-5{10}  20000 м    9/9 600 м 
-0.8 -5.1 73 -3  1017.9  0.2  748  303         
03 16.01.22 260 (З) 3-4{06}  20000 м    1/0 
-2.7 -4.4 88 -5  1017.9  -0.2  748  305         
06 16.01.22 230 (ЮЗ) 3-4{06}  20000 м    10/0 2000 м 
-2.8 -3.7 94 -5  1016.9  -0.9  747  305  -3.1       
09 16.01.22 240 (ЮЗ) 5-8{09}  19000 м    10/10 100 м 
-1 -2 93 -4  1015.6  -1.2  746  302         
12 16.01.22 230 (ЮЗ) 6-10{11}  20000 м    10/10 300 м 
+0 -2.7 82 -3  1012.7  -2.8  744  300         
15 16.01.22 230 (ЮЗ) 6-11{11}  20000 м    10/10 300 м 
-0.5 -2.2 88 -4  1009.9  -2.6  742  300         
18 16.01.22 230 (ЮЗ) 7-12{12}  5000 м  слаб. ливневой снег  10/10 300 м 
-1.7 -3.7 86 -6  1006.1  -3.9  739  300    +0  0.0   
21 16.01.22 240 (ЮЗ) 6-11{13}  5000 м  дымка  10/10 200 м 
-2 -3.9 87 -6  1002.5  -3.6  737  299         
00 17.01.22 230 (ЮЗ) 6-10{12}  2600 м  слаб. снег  10/10 200 м 
-0.8 -1.7 94 -4  996.7  -5.6  733  296      0.1   
03 17.01.22 240 (ЮЗ) 7-14{14}  20000 м  слаб. ливневой дождь  10/10 200 м 
+1 -0.3 91 -3  990.5  -5.8  728  292         
06 17.01.22 230 (ЮЗ) 6-9{15}  4200 м  слаб. ливневой снег  10/10 100 м 
+1 -0.5 90 -2  984.1  -6.4  723  290  -2.2    0.5   
09 17.01.22 320 (СЗ) 7-14{14}  2200 м  слаб. снег  10/10 300 м 
+0.1 -0.9 93 -4  983.3  -0.9  723  291         
12 17.01.22 290 (З) 6-15{17}  17000 м  слаб. снег  9/9 600 м 
-0.4 -3.5 80 -4  985.9  2.6  725  293       
15 17.01.22 320 (СЗ) 6-13{15}  0800 м  слаб. крупа  9/9 300 м 
-0.2 -1.5 91 -4  991.2  5.2  729  294         
18 17.01.22 330 (СЗ) 7-11{19}  20000 м  в посл. час снег  4/0 
-2.7 -6.6 74 -7  1001.5  9.9  736  300    +0.7   
21 17.01.22 320 (СЗ) 6-12{17}  20000 м    ясно 
-4.3 -8.5 72 -9  1007.3  5.5  740  304         
00 18.01.22 310 (СЗ) 4-8{14}  20000 м    1/0 
-3.9 -7.4 77 -7  1010.2  2.9  742  304         
03 18.01.22 320 (СЗ) 5-9{11}  20000 м    1/0 
-2.9 -6.1 79 -6  1012.9  2.8  744  304         
06 18.01.22 330 (СЗ) 5-10{13}  20000 м    ясно 
-4.1 -8.9 69 -8  1017  3.8  747  307  -4.3       
09 18.01.22 320 (СЗ) 5-12{12}  20000 м    ясно <0100 м 
-3.3 -8.1 69 -7  1021  4.1  750  307         
12 18.01.22 310 (СЗ) 4-8{12}  20000 м    ясно 
-2.5 -8.2 65 -5  1022.8  1.8  752  307         
15 18.01.22 300 (СЗ) 3-5{08}  20000 м    4/0 
-4.1 -8.8 70 -6  1025.3  2.3  753  309         
18 18.01.22 260 (З) 2-3{05}  20000 м    8/0 
-5.6 -7.2 88 -7  1025.9  0.5  754  311    -2.1     
21 18.01.22 240 (ЮЗ) 2-2{04}  19000 м    9/9 1500 м 
-6.1 -7 93 -8  1025  -1  753  311         
00 19.01.22 230 (ЮЗ) 4-5{06}  20000 м    6/0 
-4.1 -4.8 95 -7  1022.5  -2.3  751  308         
Время (UTC), дата Ветер
(°,м/с) 
Видим.   Явления Облачность Т
(°С)
Тd
(°С)
f(%) Тe
(°С)
Pmin
(гПа)
dP
(гПа)
Po
(мм)
O2
(г/м3)
Тmin Tmax R s Состояние
почвы

Для получения пояснительной информации подведите курсор к названию столбца.

ПОГОДА в Дукстасе - архив

Всё, что Вы хотите узнать о погоде в Дукстасе - удобно и подробно!

Выберите нужную дату (начиная с 1 января 2019* года) и нажмите кнопку "Найти".
Будут отображены архивные сводки погоды по пункту Дукстас, начиная с указанной даты.


Отображать данные в формате CSV (для использования в таблицах Excel)


Внимание! Наш архив погоды предназначен исключительно для личного некоммерческого использования в познавательных целях. Если Вам необходимы официальные справки о состоянии погоды (для производственных, юридических, коммерческих и т.п. целей), обращайтесь в органы Росгидромета.

*Примечание: данная дата относится к архиву по метеостанциям СССР (Россия, СНГ, Балтия).
Архив по метеостанциям Зарубежной Европы и Азии (кроме Китая) хранится 10 дней, по другим регионам земного шара (Китай, Африка, Америка, Австралия, Океания) - 1 день.

Дукстас - район местоположения метеостанции


Название, широта, долгота, высота метеостанции:
Дукстас 55.5°ш. 26.3°д. 168 м над ур. моря [Литва]

Дополнительная информация

В oтличие oт бoльшинства пoгoдных сайтoв мы публикуем пoдрoбную метеoинфoрмацию в детальнoм прoфессиoнальнoм фoрмате.

Характеристики температуры и влажнoсти вoздуха измеряются на высoте 2 м в тени вдали oт зданий и деревьев.
Скoрoсть ветра измеряется на высoте 10 м (на урoвне рoста челoвека скoрoсть ветра ниже в 1.5-2 раза). Если метеoстанция нахoдится в гoрoде или в лесу, тo скoрoсть ветра занижена на 2-4 м/с пo сравнению с oткрытым местoм. Скoрoсть ветра над акватoриями крупных рек и oзёр, а также на вершинах хoлмoв на 2-5 м/с выше, чем в oбычных услoвиях.
Атмoсфернoе давление в разных тoчках местнoсти мoжет значительнo oтличаться oт давления на метеoстанции, в зависимoсти oт услoвий рельефа (при пoдъёме на 10 м давление пoнижается примернo на 1 мм рт.ст.).